Home > Weather > Columbia > Past weeks

Flag for USA Weather for the Past 2 Weeks in Columbia, South Carolina, USA

Now
73 °F

Sunny.


Feels Like: 73 °F
Forecast: 62 / 78 °F
Wind: 6 mph from Southwest

Location: Columbia Owens Downtown Airport

Current Time: May 3, 2016 at 8:41:45 PM

Latest Report: May 3, 2016 at 7:53 PM


Visibility: 10 mi

Pressure: 29.76 "Hg

Humidity: 79%

Dew Point: 66 °F

Location of ColumbiaLocation

Historic Weather in Columbia — Graph

°F

Columbia Temperature Yesterday

Maximum temperature yesterday: 85 °F (at 2:53 PM)
Minimum temperature yesterday: 68 °F (at 3:53 AM)
Average temperature yesterday: 73 °F

High & Low Weather Summary for the Past Weeks

 TemperatureHumidityPressure
High90 °F (Apr 29, 3:53 PM)97% (Apr 30, 7:53 AM)30.22 "Hg (Apr 30, 7:53 AM)
Low50 °F (Apr 19, 6:53 AM)18% (Apr 19, 2:53 PM)29.75 "Hg (May 3, 5:53 PM)
Average73 °F65%30.00 "Hg
* Reported Apr 18 6:53 PM — May 3 6:53 PM, Columbia, Weather by CustomWeather, © 2016

Note: Actual official high and low records may vary slightly from our data, if they occured in-between our weather recording intervals... More about our weather records

Advertising

Columbia Weather History for the Previous 24 Hours

Scroll right to see more
 ConditionsComfort  
Time TempWeatherWind HumidityBarometerVisibility
6:53 PM
Tue, May 3
80 °FScattered clouds.9 mph58%29.76 "Hg10 mi
5:53 PM83 °FSunny.8 mph50%29.75 "Hg10 mi
4:53 PM83 °FPassing clouds.8 mph51%29.75 "Hg10 mi
3:53 PM84 °FScattered clouds.12 mph49%29.76 "Hg10 mi
2:53 PM84 °FScattered clouds.9 mph49%29.79 "Hg10 mi
1:53 PM83 °FPartly sunny.13 mph53%29.81 "Hg10 mi
12:53 PM80 °FBroken clouds.8 mph58%29.83 "Hg10 mi
12:01 PM78 °FScattered clouds.7 mph66%29.86 "Hg10 mi
11:02 AM76 °FBroken clouds.5 mph72%29.87 "Hg10 mi
10:53 AM75 °FPartly sunny.8 mph76%29.86 "Hg10 mi
10:01 AM72 °FMostly cloudy.6 mph84%29.88 "Hg10 mi
9:02 AM70 °FHeavy rain. Fog.3 mph87%29.88 "Hg2 mi
8:53 AM70 °FThundershowers. Low clouds.3 mph87%29.88 "Hg10 mi
7:53 AM68 °FPartly sunny.3 mph90%29.86 "Hg10 mi
6:53 AM67 °FPassing clouds.3 mph93%29.86 "Hg8 mi
5:53 AM67 °FLight rain. Mostly cloudy.No wind93%29.86 "Hg8 mi
4:53 AM68 °FMostly cloudy.No wind93%29.87 "Hg8 mi
3:53 AM68 °FMostly cloudy.5 mph90%29.88 "Hg10 mi
2:57 AM69 °FStrong thunderstorms. Fog.9 mph90%29.91 "Hg1 mi
1:53 AM69 °FPassing clouds.No wind90%29.90 "Hg8 mi
1:02 AM69 °FMostly cloudy.3 mph90%29.95 "Hg10 mi
12:53 AM69 °FThundershowers. Overcast.No wind93%29.94 "Hg10 mi
11:53 PM
Mon, May 2
70 °FLight rain. Passing clouds.No wind87%29.95 "Hg8 mi
10:53 PM70 °FLight rain. Overcast.5 mph87%29.96 "Hg8 mi
9:53 PM70 °FPartly cloudy.No wind87%29.95 "Hg10 mi
8:53 PM71 °FPassing clouds.7 mph84%29.96 "Hg10 mi
Weather by CustomWeather, © 2016

See weather overviewHow to use our weather pages